Location: Kitchener-Waterloo
(43.4500°N, 80.5000°W)
Time: 06:48:19
(UTC-05:00)

ISS - All Passes

Search period start: 23 January 2018 00:00
Search period end: 02 February 2018 00:00
Orbit: 402 x 407 km, 51.6° (Epoch: 23 January)

Date Brightness Start Highest point End Pass type
(mag) Time Alt. Az. Time Alt. Az. Time Alt. Az.
23 Jan - 00:11:17 10° NW 00:13:49 20° N 00:16:21 10° ENE night (unlit)
23 Jan - 01:47:38 10° NW 01:50:50 50° NNE 01:54:02 10° ESE night (unlit)
23 Jan - 03:24:28 10° W 03:27:08 23° SW 03:29:46 10° S night (unlit)
23 Jan - 20:04:16 10° SW 20:07:27 55° SE 20:10:40 10° ENE visible
23 Jan - 21:41:11 10° W 21:44:05 29° NNW 21:47:01 10° NE night (unlit)
23 Jan - 23:18:51 10° NW 23:21:18 19° N 23:23:44 10° NE night (unlit)
24 Jan - 00:55:25 10° NW 00:58:27 33° NNE 01:01:28 10° E night (unlit)
24 Jan - 02:31:52 10° WNW 02:34:59 42° SW 02:38:06 10° SSE night (unlit)
24 Jan - 19:12:23 10° SSW 19:15:16 30° SE 19:18:11 10° ENE visible
24 Jan - 20:48:33 10° W 20:51:40 41° NNW 20:54:48 10° NE visible
24 Jan - 22:26:17 10° NW 22:28:45 19° N 22:31:14 10° NE night (unlit)
25 Jan - 00:03:11 10° NW 00:05:59 25° NNE 00:08:47 10° ENE night (unlit)
25 Jan - 01:39:28 10° WNW 01:42:45 79° SW 01:46:01 10° SE night (unlit)
25 Jan - 03:18:34 10° SW 03:18:42 10° SW 03:18:50 10° SW night (unlit)
25 Jan - 18:21:00 10° S 18:23:09 16° SE 18:25:18 10° E visible
25 Jan - 19:56:03 10° WSW 19:59:18 67° NNW 20:02:33 10° NE visible
25 Jan - 21:33:36 10° WNW 21:36:12 22° N 21:38:50 10° NE night (unlit)
25 Jan - 23:10:53 10° NW 23:13:29 21° N 23:16:04 10° ENE night (unlit)
26 Jan - 00:47:11 10° NW 00:50:26 60° NNE 00:53:40 10° ESE night (unlit)
26 Jan - 02:24:15 10° W 02:26:38 19° SW 02:29:00 10° S night (unlit)
26 Jan - 19:03:45 10° SW 19:06:59 69° SE 19:10:14 10° ENE visible
26 Jan - 20:40:52 10° WNW 20:43:42 26° NNW 20:46:32 10° NE visible
26 Jan - 22:18:28 10° NW 22:20:55 19° N 22:23:22 10° NE night (unlit)
26 Jan - 23:54:56 10° NW 23:58:02 38° NNE 00:01:07 10° E night (unlit)
27 Jan - 01:31:29 10° WNW 01:34:29 33° SW 01:37:28 10° SSE night (unlit)
27 Jan - 18:11:42 10° SSW 18:14:44 36° SE 18:17:46 10° ENE visible
27 Jan - 19:48:09 10° W 19:51:13 36° NNW 19:54:16 10° NE visible
27 Jan - 21:25:54 10° NW 21:28:20 19° N 21:30:47 10° NE night (unlit)
27 Jan - 23:02:40 10° NW 23:05:33 27° NNE 23:08:25 10° E night (unlit)
28 Jan - 00:38:59 10° WNW 00:42:14 63° SW 00:45:28 10° SE night (unlit)
28 Jan - 17:20:04 10° S 17:22:33 20° SE 17:25:02 10° E daylight
28 Jan - 18:55:34 10° WSW 18:58:46 55° NNW 19:02:00 10° NE visible
28 Jan - 20:33:12 10° WNW 20:35:46 21° N 20:38:19 10° NE visible
28 Jan - 22:10:21 10° NW 22:13:00 22° NNE 22:15:40 10° ENE night (unlit)
28 Jan - 23:46:37 10° NW 23:49:54 72° NNE 23:53:10 10° ESE night (unlit)
29 Jan - 01:24:01 10° W 01:26:00 15° SW 01:27:59 10° S night (unlit)
29 Jan - 16:29:28 10° SSE 16:30:25 11° SE 16:31:23 10° ESE daylight
29 Jan - 18:03:08 10° SW 18:06:24 85° SE 18:09:40 10° ENE visible
29 Jan - 19:40:26 10° WNW 19:43:11 24° NNW 19:45:57 10° NE visible
29 Jan - 21:17:57 10° NW 21:20:25 20° N 21:22:55 10° NE night (unlit)
29 Jan - 22:54:20 10° NW 22:57:29 44° NNE 23:00:38 10° E night (unlit)
30 Jan - 00:31:00 10° WNW 00:33:51 27° SW 00:36:40 10° SSE night (unlit)
30 Jan - 17:10:57 10° SW 17:14:05 45° SE 17:17:14 10° ENE daylight
30 Jan - 18:47:40 10° W 18:50:39 32° NNW 18:53:38 10° NE visible
30 Jan - 20:25:23 10° NW 20:27:49 19° N 20:30:14 10° NE visible
30 Jan - 22:02:02 10° NW 22:04:59 30° NNE 22:07:56 10° E night (unlit)
30 Jan - 23:38:24 10° WNW 23:41:35 51° SW 23:44:45 10° SE night (unlit)
31 Jan - 16:19:07 10° SSW 16:21:50 25° SE 16:24:33 10° E daylight
31 Jan - 17:54:59 10° WSW 17:58:09 47° NNW 18:01:20 10° NE visible
31 Jan - 19:32:41 10° WNW 19:35:11 20° N 19:37:41 10° NE visible
31 Jan - 21:09:42 10° NW 21:12:26 24° NNE 21:15:09 10° ENE night (unlit)
31 Jan - 22:45:58 10° WNW 22:49:15 87° NNE 22:52:30 10° ESE night (unlit)
01 Feb - 00:23:51 10° WSW 00:25:16 12° SW 00:26:40 10° SSW night (unlit)
01 Feb - 15:27:56 10° SSE 15:29:39 14° SE 15:31:22 10° E daylight
01 Feb - 17:02:27 10° WSW 17:05:42 79° NNW 17:08:59 10° NE daylight
01 Feb - 18:39:53 10° WNW 18:42:34 23° NNW 18:45:15 10° NE visible
01 Feb - 20:17:17 10° NW 20:19:49 20° N 20:22:21 10° ENE visible
01 Feb - 21:53:36 10° NW 21:56:49 51° NNE 22:00:00 10° ESE night (unlit)
01 Feb - 23:30:28 10° W 23:33:06 22° SW 23:35:42 10° S night (unlit)
